Location: Makanda
(37.6176°N, 89.2090°W)
Time: 08:23:29
(UTC+00:00)

ADEOS II - Pass Details

Date: 23 September 2019
Orbit: 799 x 801 km, 98.5° (Epoch: 19 October)

Event Time Altitude Azimuth Distance (km) Brightness Sun altitude
Rises 08:55:39 0° 7° (N) 3,314 5.8 -33.0°
Reaches altitude 10° 08:58:02 10° 3° (N) 2,380 4.9 -32.6°
Enters shadow 09:00:14 25° 354° (N) 1,571 3.7 -32.2°
